sat.trackr.live / text

‹ back to catalog

STARLINK-34520

NORAD 64486 · 2025-133Q

PAYLOAD ACTIVE UNKNOWN

§ Identity

Operator
Country
US
Launch date
2025-06-23
Launch site
AFETR
Launch vehicle
Mass (kg)
RCS (m²)

Purposes: comms

External: N2YO · Heavens-Above · Gunter

§ Orbital elements

Epoch: 2026-05-25T05:27:11.172096Z

Period
94.11 min
Inclination
53.1567°
Eccentricity
0.0001149
Mean motion
15.30199279 rev/d
Perigee alt
474.4 km
Apogee alt
476.0 km
Semi-major
6,853.4 km
B*
5.5684e-4
RAAN
121.5007°
Arg perigee
87.4137°
Mean anomaly
272.6995°
Rev number
5,290

§ Raw data

STARLINK-345201 64486U 25133Q   26145.22721264  .00016169  00000+0  55684-3 0  99992 64486  53.1567 121.5007 0001149  87.4137 272.6995 15.30199279 52900

JSON: /api/v1/satellites/64486 · /tle

For live sub-satellite position, see the globe view (requires WebGL).

§ Visibility from observer

Set your observer location to see the next 7 days of passes ≥ 10°. The values pass through the URL so the page stays shareable.

No JS? Fill the form by hand. The geolocation button needs JavaScript.